Weather History for EKSB - August, 2014

Change the Weather History Date:

Friday, August 29, 2014

  Actual Average Record
Temperature  
Mean Temperature 64 °F -  
Max Temperature 68 °F 62 °F 75 °F (2002)
Min Temperature 59 °F 53 °F 48 °F (2007)
Degree Days  
Heating Degree Days 2    
Growing Degree Days 14 (Base 50)    
Moisture  
Dew Point 58 °F    
Average Humidity 86    
Maximum Humidity 100    
Minimum Humidity 68    
Precipitation  
Precipitation 0.00 in - - ()
Sea Level Pressure  
Sea Level Pressure 29.87 in    
Wind  
Wind Speed 5 mph ()    
Max Wind Speed 13 mph    
Max Gust Speed -    
Visibility 3.9 miles    
Events Rain    
Averages and records for this station are not official NWS values.
T = Trace of Precipitation, MM = Missing Value Source: Averaged Metar Reports

Daily Weather History Graph

Daily Weather History Graph

Search for Another Location

Airport or City:

Trip Planner

Search our weather history database for the weather conditions in past years. The results will help you decide how hot, cold, wet, or windy it might be!

Date:

Astronomy

Aug. 29, 2014 Rise Set
Actual Time 6:21 AM CEST 8:21 PM CEST
Civil Twilight 5:42 AM CEST 8:59 PM CEST
Nautical Twilight 4:53 AM CEST 9:48 PM CEST
Astronomical Twilight 3:55 AM CEST 10:44 PM CEST
Moon 10:36 AM CEST (8/29) 9:24 PM CEST (8/29)
Length of Visible Light 15h 17m
Length of Day
13h 59m
Waxing Crescent, 13% of the Moon is Illuminated
Aug 29
Waxing Crescent
Sep 2
First Quarter
Sep 9
Full
Sep 16
Last Quarter
Sep 24
New

Hourly Weather History & Observations

Time (CEST) Temp. Dew Point Humidity Pressure Visibility Wind Dir Wind Speed Gust Speed Precip Events Conditions
5:50 AM 60.8 °F 55.4 °F 82% 29.86 in 6.2 mi East 4.6 mph - N/A   Light Drizzle
6:50 AM 60.8 °F 57.2 °F 88% 29.86 in 6.2 mi SE 6.9 mph - N/A   Mostly Cloudy
7:50 AM 60.8 °F 57.2 °F 88% 29.86 in - SE 6.9 mph - N/A   Clear
8:50 AM 62.6 °F 57.2 °F 82% 29.86 in 6.2 mi SE 5.8 mph - N/A   Mostly Cloudy
9:17 AM 60.8 °F 57.2 °F 88% 29.86 in 2.5 mi SSE 5.8 mph - N/A Rain Light Rain
9:20 AM 60.8 °F 57.2 °F 88% 29.86 in 2.5 mi SSE 4.6 mph - N/A Rain Light Rain
9:50 AM 60.8 °F 57.2 °F 88% 29.86 in 4.3 mi SSE 3.5 mph - N/A Rain Light Rain
10:02 AM 60.8 °F 59.0 °F 94% 29.86 in - SSE 5.8 mph - N/A Rain Light Rain
10:20 AM 59.0 °F 59.0 °F 100% 29.86 in 2.5 mi SSE 6.9 mph - N/A Rain Light Rain
10:52 AM 60.8 °F 59.0 °F 94% 29.86 in 3.7 mi SSE 4.6 mph - N/A Rain Light Rain
11:20 AM 60.8 °F 59.0 °F 94% 29.86 in 1.9 mi South 4.6 mph - N/A Rain Light Rain
11:23 AM 60.8 °F 59.0 °F 94% 29.86 in 1.2 mi South 4.6 mph - N/A Rain Rain
11:57 AM 60.8 °F 59.0 °F 94% 29.86 in 1.6 mi SSE 4.6 mph - N/A Rain Rain
12:37 PM 62.6 °F 60.8 °F 94% 29.86 in 2.5 mi South 4.6 mph - N/A Rain Light Rain
12:50 PM 62.6 °F 60.8 °F 94% 29.86 in 2.2 mi SSW 4.6 mph - N/A   Mostly Cloudy
1:19 PM 64.4 °F 62.6 °F 94% 29.86 in 3.1 mi WSW 3.5 mph - N/A   Mostly Cloudy
1:20 PM 64.4 °F 62.6 °F 94% 29.86 in 3.1 mi WSW 4.6 mph - N/A   Mostly Cloudy
1:50 PM 66.2 °F 62.6 °F 88% 29.86 in 3.1 mi WSW 5.8 mph - N/A   Mostly Cloudy
2:51 PM 68.0 °F 60.8 °F 78% 29.86 in 5.0 mi SW 6.9 mph - N/A   Mostly Cloudy
4:21 PM 68.0 °F 59.0 °F 73% 29.86 in 6.2 mi WSW 10.4 mph - N/A   Mostly Cloudy
5:50 PM 68.0 °F 57.2 °F 68% 29.89 in 6.2 mi West 12.7 mph - N/A   Scattered Clouds
6:50 PM 66.2 °F 57.2 °F 73% 29.89 in 6.2 mi West 11.5 mph - N/A   Partly Cloudy
7:57 PM 64.4 °F 55.4 °F 73% 29.89 in 6.2 mi West 5.8 mph - N/A   Partly Cloudy
8:50 PM 62.6 °F 55.4 °F 77% 29.89 in - WSW 6.9 mph - N/A   Clear
9:51 PM 60.8 °F 55.4 °F 82% 29.89 in - WSW 5.8 mph - N/A   Clear